Latest Weather Observations for Blackall

IDQ60801

Issued at 7:07 pm EST Wednesday 1 April 2015 (issued every 30 minutes, with the page automatically refreshed every 10 minutes)

About weather observations | Map of weather stations | Latest weather observations for QLD | Other Formats
Station Details ID: 036034 Name: BLACKALL AIRPORT Lat: -24.43 Lon: 145.43 Height: 281.3 m
Data from the previous 72 hours. | See also: Recent months at Blackall
Date/Time
EST
Temp
°C
App
Temp
°C
Dew
Point
Rel
Hum
%
Delta-T
°C
Wind Press
QNH
hPa
Press
MSL
hPa
Rain
since 9 am
mm
Dir
 
Spd
km/h
Gust
km/h
Spd
kts
Gust
kts
01/07:00pm 27.9 27.2 13.1 40 8.8 ESE 9 13 5 7 1014.9 1013.5 0.0
01/06:30pm 28.6 26.9 12.5 37 9.5 ESE 13 17 7 9 1014.5 1013.1 0.0
01/06:00pm 29.5 26.5 12.0 34 10.3 SE 19 26 10 14 1013.9 1012.6 0.0
01/05:30pm 31.0 29.4 11.4 30 11.5 SE 11 17 6 9 1013.6 1012.3 0.0
01/05:00pm 30.9 28.3 10.8 29 11.7 SSE 15 19 8 10 1013.6 1012.3 0.0
01/04:30pm 31.4 29.2 10.7 28 12.1 SSE 13 22 7 12 1013.4 1012.1 0.0
01/04:00pm 30.9 28.6 10.3 28 11.9 ESE 13 20 7 11 1013.5 1012.2 0.0
01/03:30pm 30.7 29.1 11.6 31 11.2 NNE 11 19 6 10 1013.8 1012.5 0.0
01/03:00pm 30.6 30.2 12.5 33 10.8 NNW 6 13 3 7 1014.2 1012.8 0.0
01/02:30pm 30.6 30.4 13.0 34 10.6 WNW 6 13 3 7 1014.7 1013.3 0.0
01/02:00pm 30.3 30.2 14.0 37 9.9 WSW 7 13 4 7 1015.0 1013.6 0.0
01/01:30pm 29.6 28.8 12.9 35 10.0 NE 9 13 5 7 1015.6 1014.3 0.0
01/01:00pm 29.0 28.4 13.6 38 9.3 ENE 9 17 5 9 1016.0 1014.7 0.0
01/12:30pm 28.5 28.3 13.6 40 9.0 SE 7 15 4 8 1016.7 1015.4 0.0
01/12:00pm 27.8 28.0 14.1 43 8.3 S 6 17 3 9 1017.4 1016.1 0.0
01/11:30am 27.2 27.0 14.6 46 7.7 E 9 13 5 7 1018.0 1016.6 0.0
01/11:00am 26.5 26.6 15.5 50 6.8 NNE 9 15 5 8 1018.5 1017.2 0.0
01/10:30am 25.8 25.7 16.1 55 6.0 ENE 11 17 6 9 1018.9 1017.6 0.0
01/10:00am 24.4 24.1 16.4 61 4.9 ENE 13 20 7 11 1019.2 1017.9 0.0
01/09:30am 23.6 22.9 16.4 64 4.4 ENE 15 20 8 11 1019.4 1017.7 0.0
01/09:00am 22.8 21.6 16.1 66 4.1 ENE 17 20 9 11 1019.6 1017.9 0.2
01/08:30am 21.8 21.1 15.4 67 3.9 ENE 13 17 7 9 1019.3 1017.6 0.2
01/08:00am 20.8 20.8 15.1 70 3.4 E 9 13 5 7 1019.0 1017.3 0.2
01/07:30am 19.1 18.9 14.6 75 2.6 ESE 9 13 5 7 1018.7 1017.0 0.2
01/07:00am 17.9 17.2 14.4 80 2.0 SE 11 15 6 8 1018.4 1016.7 0.2
01/06:30am 17.5 17.6 14.4 82 1.8 E 7 9 4 5 1018.2 1016.5 0.2
01/06:00am 17.5 17.7 14.2 81 1.9 SE 6 7 3 4 1018.2 1016.5 0.2
01/05:30am 17.9 17.8 14.0 78 2.3 E 7 11 4 6 1017.7 1016.0 0.2
01/05:00am 18.2 17.7 13.9 76 2.5 E 9 13 5 7 1017.5 1015.8 0.2
01/04:30am 17.8 17.4 14.1 79 2.1 ESE 9 13 5 7 1017.3 1015.6 0.2
01/04:00am 17.9 18.1 14.6 81 1.9 ESE 7 9 4 5 1017.2 1015.5 0.2
01/03:30am 18.1 17.9 14.8 81 1.9 SE 9 9 5 5 1017.3 1015.6 0.2
01/03:00am 18.5 18.6 15.4 82 1.8 ESE 9 11 5 6 1017.4 1015.7 0.2
01/02:30am 18.6 19.0 16.4 87 1.3 ESE 9 11 5 6 1017.5 1015.8 0.2
01/02:00am 19.3 19.7 16.3 83 1.8 E 9 13 5 7 1017.7 1016.0 0.2
01/01:30am 19.9 20.3 16.3 80 2.2 E 9 11 5 6 1017.9 1016.1 0.2
01/01:00am 19.8 20.9 16.6 82 1.9 NE 6 7 3 4 1018.2 1016.5 0.2
01/12:30am 20.4 21.2 17.2 82 2.0 E 9 11 5 6 1018.4 1016.7 0.2
01/12:00am 20.5 21.6 17.1 81 2.1 E 7 9 4 5 1018.7 1017.0 0.2
 
Date/Time
EST
Temp
°C
App
Temp
°C
Dew
Point
Rel
Hum
%
Delta-T
°C
Wind Press
QNH
hPa
Press
MSL
hPa
Rain
since 9 am
mm
Dir
 
Spd
km/h
Gust
km/h
Spd
kts
Gust
kts
31/11:30pm 21.2 21.5 17.0 77 2.6 E 11 15 6 8 1018.6 1016.9 0.2
31/11:00pm 21.5 22.2 17.1 76 2.7 E 9 13 5 7 1018.7 1017.0 0.2
31/10:30pm 21.9 22.7 17.3 75 2.9 ENE 9 11 5 6 1019.0 1017.3 0.2
31/10:00pm 22.5 22.3 16.8 70 3.5 ENE 13 15 7 8 1019.0 1017.3 0.2
31/09:30pm 23.0 22.9 17.0 69 3.7 E 13 17 7 9 1019.0 1017.3 0.2
31/09:00pm 23.2 23.6 17.2 69 3.7 E 11 13 6 7 1019.0 1017.3 0.2
31/08:30pm 23.5 24.4 17.5 69 3.8 E 9 11 5 6 1019.0 1017.3 0.2
31/08:00pm 24.1 24.9 17.4 66 4.2 E 9 11 5 6 1018.9 1017.2 0.2
31/07:30pm 24.5 25.4 17.5 65 4.4 ESE 9 11 5 6 1018.5 1016.8 0.2
31/07:00pm 25.1 25.3 16.8 60 5.2 E 11 13 6 7 1018.0 1016.2 0.2
31/06:30pm 25.6 26.4 17.3 60 5.2 E 9 11 5 6 1017.7 1016.0 0.2
31/06:00pm 26.1 26.7 17.7 60 5.3 E 11 13 6 7 1017.6 1015.9 0.2
31/05:30pm 26.5 26.2 16.4 53 6.3 E 13 17 7 9 1017.7 1016.0 0.2
31/05:00pm 26.9 27.0 16.5 53 6.5 NE 11 19 6 10 1017.2 1015.5 0.2
31/04:30pm 27.1 27.2 16.4 52 6.7 NE 11 19 6 10 1017.1 1015.4 0.2
31/04:00pm 27.0 26.6 16.3 52 6.7 E 13 20 7 11 1017.1 1015.4 0.2
31/03:30pm 26.7 26.2 16.9 55 6.2 ENE 15 22 8 12 1017.3 1015.6 0.2
31/03:00pm 26.1 26.0 16.9 57 5.8 ENE 13 22 7 12 1017.6 1015.9 0.2
31/02:30pm 25.9 25.8 17.0 58 5.6 ENE 13 20 7 11 1017.5 1015.8 0.2
31/02:00pm 25.8 26.6 18.2 63 4.9 ENE 11 19 6 10 1018.1 1016.3 0.2
31/01:30pm 25.3 25.8 17.5 62 4.9 NE 11 20 6 11 1018.8 1017.1 0.2
31/01:00pm 24.1 24.4 16.9 64 4.5 NNE 11 17 6 9 1019.5 1017.8 0.2
31/12:30pm 24.2 24.2 18.2 69 3.8 N 15 20 8 11 1019.9 1018.2 0.2
31/12:00pm 23.0 22.4 17.5 71 3.4 N 17 22 9 12 1020.1 1018.4 0.2
31/11:30am 22.6 21.8 17.9 75 3.0 N 19 24 10 13 1020.5 1018.8 0.2
31/11:00am 22.3 21.5 18.1 77 2.6 NNE 19 28 10 15 1020.7 1019.0 0.0
31/10:30am 22.2 20.9 18.2 78 2.5 NNE 22 30 12 16 1021.2 1019.5 0.0
31/10:00am 22.1 20.5 18.3 79 2.4 N 24 32 13 17 1021.4 1019.8 0.0
31/09:30am 21.9 20.7 18.5 81 2.2 NNE 22 32 12 17 1021.4 1019.8 0.0
31/09:00am 21.8 21.1 18.6 82 2.0 NNE 20 30 11 16 1021.5 1019.9 27.2
31/08:30am 21.6 22.2 19.5 88 1.4 NNE 15 22 8 12 1021.2 1019.5 27.2
31/08:00am 21.3 22.3 19.4 89 1.2 NE 13 17 7 9 1020.9 1019.2 27.2
31/07:30am 20.9 22.6 19.4 91 1.0 ENE 9 11 5 6 1020.7 1019.0 27.2
31/07:00am 20.6 20.4 19.4 93 0.8 NE 19 22 10 12 1019.3 1017.6 27.2
31/06:30am 20.6 21.7 18.9 90 1.1 ENE 11 15 6 8 1019.5 1017.8 27.0
31/06:00am 20.5 21.5 19.5 94 0.6 E 13 17 7 9 1018.8 1017.1 27.0
31/05:30am 20.3 21.3 19.5 95 0.5 ESE 13 17 7 9 1018.5 1016.8 27.0
31/05:00am 20.4 20.7 19.6 95 0.5 NE 17 26 9 14 1018.2 1016.5 26.6
31/04:30am 20.2 21.2 20.2 100 0.0 NE 15 19 8 10 1018.7 1017.0 25.4
31/04:00am 20.2 21.4 20.0 99 0.1 SSE 13 24 7 13 1018.6 1016.9 13.4
31/03:30am 21.0 20.6 19.3 90 1.1 SSE 20 28 11 15 1018.1 1016.3 6.6
31/03:00am 21.1 21.8 19.7 92 0.9 SE 15 22 8 12 1018.1 1016.3 6.6
31/02:30am 21.0 21.9 20.0 94 0.6 SE 15 19 8 10 1018.4 1016.7 6.6
31/02:00am 21.0 22.0 20.2 95 0.5 SE 15 19 8 10 1019.0 1017.3 6.6
31/01:30am 21.0 21.7 20.5 97 0.3 ESE 17 20 9 11 1019.5 1017.8 6.4
31/01:00am 21.4 23.8 19.7 90 1.1 ESE 6 9 3 5 1020.2 1018.5 5.2
31/12:30am 21.5 23.7 20.5 94 0.7 SSW 9 13 5 7 1020.3 1018.6 4.4
31/12:00am 21.9 22.9 19.5 86 1.5 SSE 13 19 7 10 1019.9 1018.2 3.2
 
Date/Time
EST
Temp
°C
App
Temp
°C
Dew
Point
Rel
Hum
%
Delta-T
°C
Wind Press
QNH
hPa
Press
MSL
hPa
Rain
since 9 am
mm
Dir
 
Spd
km/h
Gust
km/h
Spd
kts
Gust
kts
30/11:30pm 22.3 22.0 19.5 84 1.8 SE 20 28 11 15 1019.2 1017.5 2.4
30/11:00pm 22.3 22.1 19.7 85 1.7 SE 20 30 11 16 1019.5 1017.8 2.4
30/10:30pm 22.2 21.5 19.6 85 1.7 ESE 22 32 12 17 1019.7 1018.0 2.4
30/10:00pm 22.1 22.4 19.5 85 1.7 SE 17 22 9 12 1020.4 1018.7 2.4
30/09:30pm 22.2 21.1 19.4 84 1.8 ESE 24 32 13 17 1019.9 1018.2 2.4
30/09:00pm 22.4 21.7 19.6 84 1.8 SSE 22 30 12 16 1020.5 1018.8 2.0
30/08:30pm 23.8 23.4 18.9 74 3.1 SE 19 32 10 17 1019.9 1018.2 1.4
30/08:00pm 24.0 23.5 19.1 74 3.2 SE 20 28 11 15 1019.6 1017.9 1.4
30/07:30pm 24.5 24.3 19.3 73 3.4 SE 19 24 10 13 1019.4 1017.7 0.6
30/07:00pm 24.8 24.5 19.6 73 3.4 ESE 20 28 11 15 1018.8 1017.1 0.4
30/06:30pm 24.6 24.3 19.2 72 3.5 S 19 26 10 14 1018.3 1016.6 0.4
30/06:00pm 24.1 21.3 19.0 73 3.3 SSW 32 46 17 25 1017.7 1016.0 0.2
30/05:30pm 28.7 26.1 16.9 48 7.5 SSW 26 37 14 20 1016.9 1015.2 0.0
30/05:00pm 32.9 32.7 13.5 30 11.8 NE 7 15 4 8 1016.4 1014.7 0.0
30/04:30pm 33.3 32.5 13.9 31 11.9 ENE 11 19 6 10 1016.1 1014.4 0.0
30/04:00pm 33.8 33.1 14.3 31 12.1 ENE 11 20 6 11 1016.1 1014.4 0.0
30/03:30pm 34.1 32.4 14.6 31 12.2 ENE 17 28 9 15 1016.1 1014.4 0.0
30/03:00pm 32.9 30.6 14.0 32 11.6 ENE 19 26 10 14 1016.3 1014.6 0.0
30/02:30pm 32.8 31.4 13.4 30 11.8 E 13 22 7 12 1016.6 1014.9 0.0
30/02:00pm 33.6 33.4 13.6 29 12.3 NNE 7 17 4 9 1017.0 1015.3 0.0
30/01:30pm 33.4 32.4 14.5 32 11.7 E 13 20 7 11 1017.5 1015.8 0.0
30/01:00pm 33.0 31.6 14.6 33 11.4 NNE 15 26 8 14 1018.2 1016.5 0.0
30/12:30pm 31.5 29.9 15.0 36 10.3 NE 17 24 9 13 1018.7 1017.0 0.0
30/12:00pm 31.9 30.6 15.8 38 10.1 NNE 17 26 9 14 1019.4 1017.7 0.0
30/11:30am 30.9 28.8 16.1 41 9.3 ENE 22 32 12 17 1020.0 1018.3 0.0
30/11:00am 29.9 28.4 16.7 45 8.4 NE 20 32 11 17 1020.5 1018.8 0.0
30/10:30am 29.6 28.4 17.4 47 7.8 NE 20 32 11 17 1020.9 1019.2 0.0
30/10:00am 28.8 27.1 17.3 49 7.3 NNE 22 33 12 18 1020.9 1019.2 0.0
30/09:30am 27.3 26.2 17.8 56 6.1 NNE 20 32 11 17 1020.9 1019.2 0.0
30/09:00am 26.7 25.8 17.7 57 5.7 NE 19 28 10 15 1021.2 1019.5 1.2
30/08:30am 25.6 25.2 18.0 63 4.8 NE 17 26 9 14 1021.1 1019.4 1.2
30/08:00am 24.9 24.0 18.1 66 4.3 NE 20 30 11 16 1020.4 1018.7 1.2
30/07:30am 24.3 23.9 18.0 68 4.0 NNE 17 22 9 12 1020.1 1018.4 1.2
30/07:00am 24.1 23.2 17.8 68 4.0 NE 19 22 10 12 1019.7 1018.0 1.2
30/06:30am 24.2 23.4 17.9 68 4.0 NE 19 28 10 15 1019.0 1017.3 1.2
30/06:00am 24.5 23.1 18.0 67 4.1 NNE 22 30 12 16 1018.8 1017.1 1.2
30/05:30am 24.7 23.9 17.9 66 4.3 NE 19 24 10 13 1018.4 1016.7 1.2
30/05:00am 25.1 23.8 18.1 65 4.5 NNE 22 33 12 18 1017.9 1016.1 1.2
30/04:30am 25.0 23.3 18.0 65 4.5 NE 24 33 13 18 1017.4 1015.7 1.2
30/04:00am 24.5 23.7 18.0 67 4.1 ENE 19 26 10 14 1018.0 1016.2 1.2
30/03:30am 24.2 23.3 17.7 67 4.1 E 19 24 10 13 1018.5 1016.8 1.2
30/03:00am 24.1 23.6 17.8 68 4.0 E 17 22 9 12 1018.6 1016.9 1.2
30/02:30am 24.1 23.6 17.8 68 4.0 ESE 17 24 9 13 1019.0 1017.3 1.2
30/02:00am 23.6 22.8 18.5 73 3.2 ESE 20 28 11 15 1019.5 1017.8 1.2
30/01:30am 24.1 24.1 18.1 69 3.8 SSE 15 22 8 12 1019.8 1018.1 1.2
30/01:00am 24.5 23.8 18.2 68 4.0 S 19 28 10 15 1019.7 1018.0 1.2
30/12:30am 24.5 24.2 18.2 68 4.0 S 17 24 9 13 1019.8 1018.1 1.2
30/12:00am 24.8 23.8 18.0 66 4.3 S 20 35 11 19 1019.8 1018.1 1.2
 
Date/Time
EST
Temp
°C
App
Temp
°C
Dew
Point
Rel
Hum
%
Delta-T
°C
Wind Press
QNH
hPa
Press
MSL
hPa
Rain
since 9 am
mm
Dir
 
Spd
km/h
Gust
km/h
Spd
kts
Gust
kts
29/11:30pm 24.8 24.3 19.0 70 3.7 SSW 20 28 11 15 1019.9 1018.2 1.0
29/11:00pm 26.9 26.1 17.9 57 5.7 SW 19 26 10 14 1019.9 1018.2 0.0
29/10:30pm 27.1 27.9 17.3 55 6.2 SSE 9 15 5 8 1019.6 1017.9 0.0
29/10:00pm 27.0 27.6 17.8 57 5.9 SSE 11 17 6 9 1019.5 1017.8 0.0
29/09:30pm 26.9 27.6 17.9 57 5.8 S 11 15 6 8 1019.5 1017.8 0.0
29/09:00pm 26.9 26.2 17.4 56 6.0 S 17 26 9 14 1019.3 1017.6 0.0
29/08:30pm 28.7 26.6 16.3 47 7.8 S 22 30 12 16 1019.2 1017.5 0.0
29/08:00pm 29.5 27.5 15.6 43 8.6 S 20 32 11 17 1018.4 1016.7 0.0
29/07:30pm 31.8 31.0 14.0 34 10.9 ENE 11 13 6 7 1017.5 1015.8 0.0

Other Formats:

Comma delimited format used in spreadsheet applications
http://www.bom.gov.au/fwo/IDQ60801/IDQ60801.95351.axf

JavaScript Object Notation format (JSON) in row-major order
http://www.bom.gov.au/fwo/IDQ60801/IDQ60801.95351.json